Probability
0 0 0 0 0 0 0 0 0 0 0 0 0 0 0 0 0 0 0 0 0 0 0 0 0 0 0 0 0 0 0 0 0 0 0 0 0 0 0 0 0 0 0
0 0 0 0 0 0 0 0 0 0 0 0 0 0 0 0 0 0 0 0 0 0 0 0 0 0 0 0 0 0 0 0 0 0 0 0 0 0 0 0 0 0 0
0 0 0 0 0 0 0 0 0 0 0 0 0 0 0 0 0 0 0 0 0 0 0 0 0 0 0 0 0 0 0 0 0 0 0 0 0 0 0 0 0 0 0
0 0 0 0 0 0 0 0 0 0 0 0 0 0 0 0 0 0 0 0 0 0 0 0 0 0 0 0 0 0 0 0 0 0 0 0 0 0 0 0 0 0 0
0 0 0 0 0 0 0 0 0 0 0 0 0 0 0 0 0 0 0 0 0 0 0 0 0 0 0 0 0 0 0 0 0 0 0 0 0 0 0 0 0 0 0
0 0 0 0 0 0 0 0 0 0 0 0 0 0 0 0 0 0 0 0 0 0 0 0 0 0 0 0 0 0 0 0 0 0 0 0 0 0 0 0 0 0 0
0 0 0 0 0 0 0 0 0 0 0 0 0 0 0 0 0 0 0 0 0 0 0 0 0 0 0 0 0 0 0 0 0 0 0 0 0 0 0 0 0 0 0
0 0 0 0 0 0 0 0 0 0 0 0 0 0 0 0 0 0 0 0 0 0 0 0 0 0 0 0 0 0 0 0 0 0 0 0 0 0 0 0 0 0 0
0 0 0 0 0 0 0 0 0 0 0 0 0 0 0 0 0 0 0 0 0 0 0 0 0 0 0 0 0 0 0 0 0 0 0 0 0 0 0 0 0 0 0
0 0 0 0 0 0 0 0 0 0 0 0 0 0 0 0 0 0 0 0 0 0 0 0 0 0 0 0 0 0 0 0 0 0 0 0 0 0 0 0 0 0 0
0 0 0 0 0 0 0 0 0 0 0 0 0 0 0 0 0 0 0 0 0 0 0 0 0 0 0 0 0 0 0 0 0 0 0 0 0 0 0 0 0 0 0
0 0 0 0 0 0 0 0 0 0 0 0 0 0 0 0 0 0 0 0 0 0 0 0 0 0 0 0 0 0 0 0 0 0 0 0 0 0 0 0 0 0 0
0 0 0 0 0 0 0 0 0 0 0 0 0 0 0 0 0 0 0 0 0 0 0 0 0 0 0 0 0 0 0 0 0 0 0 0 0 0 0 0 0 0 0
0 0 0 0 0 0 0 0 0 0 0 0 0 0 0 0 0 0 0 0 0 0 0 0 0 0 0 0 0 0 0 0 0 0 0 0 0 0 0 0 0 0 0
0 0 0 0 0 0 0 0 0 0 0 0 0 0 0 0 0 0 0 0 0 0 0 0 0 0 0 0 0 0 0 0 0 0 0 0 0 0 0 0 0 0 0
0 0 0 0 0 0 0 0 0 0 0 0 0 0 0 0 0 0 0 0 0 0 0 0 0 0 0 0 0 0 0 0 0 0 0 0 0 0 0 0 0 0 0
0 0 0 0 0 0 0 0 0 0 0 0 0 0 0 0 0 0 0 0 0 0 0 0 0 0 0 0 0 0 0 0 0 0 0 0 0 0 0 0 0 0 0
0 0 0 0 0 0 0 0 0 0 0 0 0 0 0 0 0 0 0 0 0 0 0 0 0 0 0 0 0 0 0 0 0 0 0 0 0 0 0 0 0 0 0
0 0 0 0 0 0 0 0 0 0 0 0 0 0 0 0 0 0 0 0 0 0 0 0 0 0 0 0 0 0 0 0 0 0 0 0 0 0 0 0 0 0 0
0 0 0 0 0 0 0 0 0 0 0 0 0 0 0 0 0 0 0 0 0 0 0 0 0 0 0 0 0 0 0 0 0 0 0 0 0 0 0 0 0 0 0
0 0 0 0 0 0 0 0 0 0 0 0 0 0 0 0 0 0 0 0 0 0 0 0 0 0 0 0 0 0 0 0 0 0 0 0 0 0 0 0 0 0 0
0 0 0 0 0 0 0 0 0 0 0 0 0 0 0 0 0 0 0 0 0 0 0 0 0 0 0 0 0 0 0 0 0 0 0 0 0 0 0 0 0 0 0
0 0 0 0 0 0 0 0 0 0 0 0 0 0 0 0 0 0 0 0 0 0 0 0 0 0 0 0 0 0 0 0 0 0 0 0 0 0 0 0 0 0 0
0 0 0 0 0 0 0 0 0 0 0 0 0 0 0 0 0 0 0 0 0 0 0 0 0 0 0 0 0 0 0 0 0 0 0 0 0 0 0 0 0 0 0
0 0 0 0 0 0 0 0 0 0 0 0 0 0 0 0 0 0 0 0 0 0 0 0 0 0 0 0 0 0 0 0 0 0 0 0 0 0 0 0 0 0 0
0 0 0 0 0 0 0 0 0 0 0 0 0 0 0 0 0 0 0 0 0 0 0 0 0 0 0 0 0 0 0 0 0 0 0 0 0 0 0 0 0 0 0
Wind_Speed
13 13 13 13 13 13 13 14 14 12 13 13 14 14 14 15 14 14 14 12 14 13 11 12 13 10 8 7 6 6 6 5 4 2 2 4 6 7 6 4 4 4 3
10 10 11 11 10 12 13 13 12 12 12 13 13 13 14 14 14 15 15 14 14 14 13 13 13 9 11 8 7 8 7 6 5 5 3 4 5 7 6 6 4 3 3
8 9 9 10 10 12 12 11 11 11 11 11 12 14 14 14 14 15 15 14 15 14 14 14 13 11 11 8 8 8 6 5 4 5 4 3 2 4 5 3 3 2 3
7 8 9 10 10 10 9 8 9 9 10 11 12 12 12 12 13 12 13 13 13 13 12 12 12 13 12 11 9 8 7 6 5 5 4 3 3 4 4 4 3 2 2
7 7 9 7 6 6 6 7 7 7 8 9 9 9 9 9 10 11 11 11 11 11 10 10 10 11 12 11 9 9 9 7 6 5 5 4 5 6 7 5 4 3 2
7 8 6 5 5 5 5 5 5 5 6 6 7 8 8 7 10 14 11 10 10 10 10 8 8 9 10 12 13 13 13 11 10 8 6 7 8 7 6 6 5 4 4
7 6 5 5 5 5 5 4 5 5 5 5 6 6 7 8 11 13 14 9 9 9 9 8 6 6 8 7 9 10 9 11 12 10 10 9 9 10 10 8 7 5 4
7 6 6 6 6 5 5 5 5 4 4 5 5 5 5 5 9 10 11 8 6 7 7 8 8 7 8 9 8 7 6 6 7 6 7 7 7 9 10 9 7 4 2
7 7 7 7 7 6 6 6 4 4 4 4 3 5 5 4 7 9 9 5 5 5 4 5 7 7 11 13 9 8 6 3 4 6 6 7 10 12 10 7 6 5 3
9 8 7 7 7 7 7 5 3 3 4 3 3 3 4 4 7 9 9 4 5 4 3 4 6 7 12 14 9 9 9 6 6 6 7 7 7 10 12 8 8 6 3
6 5 6 6 7 6 5 4 4 4 3 3 3 2 3 3 6 9 10 5 5 5 4 4 5 11 13 14 11 8 9 8 7 7 6 5 5 4 5 4 4 4 4
5 6 5 5 5 4 5 5 4 5 5 4 3 3 2 2 4 7 10 8 7 5 5 4 5 12 13 13 9 8 12 10 6 6 6 5 5 5 4 4 3 2 2
6 6 5 5 5 5 5 6 5 5 4 4 4 4 3 2 3 6 8 8 8 4 3 7 8 11 11 8 10 12 10 7 7 6 6 6 5 5 5 4 3 2 2
6 6 5 6 5 5 4 4 5 5 5 5 5 4 3 3 3 3 4 4 5 4 4 6 9 10 8 6 7 8 6 6 6 6 5 4 4 5 4 4 3 3 2
5 5 5 5 5 5 4 4 4 4 4 5 5 5 5 5 6 8 6 5 5 5 6 4 4 5 5 5 4 5 5 5 5 4 5 5 5 5 4 4 3 4 4
5 5 4 4 4 4 4 3 2 3 4 4 5 4 3 4 7 10 10 10 11 13 7 5 6 6 6 7 7 6 5 6 6 5 6 6 6 7 6 5 4 5 5
5 5 4 4 5 5 5 5 4 2 3 4 4 6 5 6 8 10 10 11 12 13 5 5 6 6 6 6 6 6 6 6 5 6 6 6 6 6 6 6 6 5 5
4 4 4 4 4 4 4 4 4 4 4 2 2 4 5 6 7 9 10 9 7 7 4 5 5 5 5 6 6 5 5 5 6 6 6 6 6 6 6 7 7 7 6
3 3 3 3 3 3 3 3 3 3 3 3 1 1 3 5 6 8 9 5 5 5 5 4 4 5 5 5 5 5 6 6 6 6 6 7 7 7 7 7 7 8 7
2 3 4 4 4 4 4 4 3 3 3 3 3 2 2 3 3 4 5 3 4 4 4 4 4 4 4 5 5 5 6 6 7 7 6 6 6 7 7 8 7 7 7
2 2 4 3 3 3 3 3 3 3 3 3 2 2 4 3 3 4 3 3 3 4 4 4 4 4 4 4 4 5 7 6 6 7 7 6 6 6 6 6 6 6 6
2 2 2 2 2 2 2 2 3 3 3 2 1 1 3 1 2 2 2 2 2 2 2 3 4 4 4 5 5 6 6 6 6 6 6 6 6 6 6 6 6 6 6
2 3 3 2 2 3 3 2 2 2 2 2 2 1 1 1 1 1 1 1 1 1 1 2 3 3 3 3 4 5 6 7 6 6 6 6 6 6 6 7 8 7 7
3 3 3 2 2 2 2 2 2 2 2 2 1 1 1 1 1 1 1 1 1 1 1 2 3 4 5 4 3 4 4 4 4 5 7 7 6 6 6 7 7 8 8
3 3 2 2 2 2 2 2 1 1 1 1 1 1 1 1 1 1 1 1 1 2 2 2 2 3 5 5 5 4 5 6 6 5 6 6 7 7 7 7 7 6 6
3 3 2 2 2 2 2 1 1 1 1 0 0 0 0 1 1 1 1 1 1 1 2 2 3 3 4 4 6 6 6 7 8 8 6 6 7 7 7 6 7 6 6
Wind_Direction
209 210 212 214 215 215 217 219 219 216 211 211 211 210 211 212 212 214 217 214 217 220 216 217 220 213 212 211 206 203 202 186 196 170 140 154 167 172 171 171 170 177 189
208 208 213 215 213 216 220 221 217 216 214 213 211 211 211 211 210 211 214 214 216 218 217 217 219 210 211 207 205 206 203 189 177 179 163 164 176 179 172 171 174 179 189
201 205 211 213 214 218 221 220 215 215 214 211 210 213 212 211 211 212 213 213 215 217 215 216 215 206 209 206 202 203 199 185 168 162 165 156 146 162 161 162 172 182 201
195 203 212 215 216 220 220 218 216 214 214 213 212 214 212 209 209 209 211 213 215 216 214 213 209 206 206 201 200 198 187 175 161 155 156 148 141 146 158 168 182 194 204
194 206 217 216 214 215 216 217 215 214 215 214 212 213 211 208 206 204 207 211 212 213 211 210 209 206 204 198 193 190 182 178 167 165 162 156 162 167 186 180 184 178 206
198 212 211 204 205 210 213 211 210 214 213 209 210 209 209 210 205 202 201 207 208 208 208 207 202 197 198 197 195 190 185 182 180 177 180 185 186 183 171 171 168 167 209
200 205 199 195 204 211 206 203 208 209 204 208 209 206 212 211 204 202 201 202 204 207 205 199 195 194 186 187 189 187 193 194 186 182 185 190 180 180 171 174 187 186 194
197 202 198 193 203 203 200 208 209 200 200 205 208 209 211 213 202 199 196 202 205 205 201 195 190 188 188 177 171 175 185 192 190 190 192 187 178 171 174 174 171 145 88
203 206 200 193 194 194 203 208 201 195 203 203 199 199 204 209 196 190 180 185 195 199 192 186 182 186 186 173 168 170 170 174 160 150 151 151 154 159 157 141 148 156 176
210 205 194 186 189 195 199 196 186 187 197 186 196 197 197 203 193 186 173 171 184 185 178 179 185 185 180 176 174 173 178 176 151 138 135 137 144 160 167 169 167 168 163
194 183 182 184 188 188 179 173 170 172 173 180 190 198 202 202 194 190 181 176 181 180 183 185 191 188 185 185 183 183 183 160 152 145 137 133 134 148 161 161 163 166 169
167 171 178 179 174 170 167 167 166 169 177 185 191 202 209 198 193 195 193 191 180 182 188 185 188 188 189 187 183 174 159 146 144 147 151 161 167 171 166 156 150 138 148
163 171 171 167 169 168 172 174 172 177 186 191 193 204 205 192 195 194 194 191 184 176 171 174 176 180 180 180 176 163 150 150 156 166 177 180 173 159 143 134 122 109 84
168 172 167 169 170 170 175 179 182 186 191 192 196 201 195 187 189 185 180 175 172 158 146 157 166 169 165 152 157 158 159 169 174 177 173 155 141 146 158 160 164 160 163
168 166 166 171 169 172 178 187 188 192 191 189 194 188 188 200 200 187 175 175 170 161 141 135 148 156 165 165 161 160 164 167 173 163 157 157 162 165 170 167 163 168 189
165 169 172 172 169 168 168 165 163 160 167 178 177 175 189 191 180 186 187 184 174 162 150 165 176 180 183 182 181 179 181 186 184 174 172 172 176 179 179 176 177 188 203
170 170 167 168 170 171 173 175 170 148 148 163 176 181 182 182 184 185 185 181 177 171 173 180 187 189 188 187 187 188 192 190 182 182 183 182 181 182 183 186 190 197 209
160 159 160 168 170 171 174 175 170 168 172 180 194 187 183 183 185 184 179 168 177 183 188 189 192 192 191 191 192 193 188 181 186 189 188 186 185 186 190 196 199 203 206
151 154 155 156 156 158 155 155 157 163 162 153 136 170 181 179 177 180 172 175 182 190 192 193 193 192 192 190 191 192 191 190 190 190 194 194 191 192 200 203 203 205 204
143 144 147 152 152 152 152 154 159 164 165 165 171 177 164 160 172 181 186 184 188 193 191 194 194 194 193 192 190 189 191 194 194 197 199 199 197 199 205 205 204 204 209
121 131 133 137 144 149 151 156 158 161 166 169 177 190 176 176 186 189 191 193 194 194 193 192 192 193 195 192 192 195 198 202 201 202 202 201 198 203 206 206 208 209 210
107 117 122 126 124 125 130 136 142 148 154 161 162 190 184 158 175 187 196 204 201 194 190 189 193 197 198 198 197 199 204 207 206 204 205 203 202 204 204 206 208 208 208
95 102 101 100 108 113 114 116 127 138 145 156 161 165 168 179 183 193 204 205 189 188 184 184 194 202 205 206 202 201 207 211 207 201 202 204 204 204 203 207 208 207 210
88 96 100 100 102 108 113 113 112 120 131 144 156 166 177 187 198 209 209 203 200 202 198 199 205 210 209 209 210 210 211 208 197 197 197 201 206 207 205 208 210 212 214
78 86 92 98 102 106 106 106 107 112 124 141 156 166 183 198 216 225 221 214 212 217 221 220 219 216 215 216 216 217 220 218 208 199 197 202 208 209 208 211 211 210 211
70 75 77 80 88 99 110 115 117 119 132 144 148 164 194 222 239 241 232 224 229 236 238 233 233 232 228 224 226 228 226 226 219 209 199 201 207 211 207 210 208 208 207